FW3274 Weather Reports


Display with metric or nautical units.
time (UTC)temp
F
wind
direction
speed
MPH
gust
MPH
rain 1hr
in
rain 24hr
in
rain mn
in
humidity
%
barometer
mb
20260904021511 70 31 0.0 0.0 0.00 0.00 0.00 73 1013.3
20260904020008 70 32 0.0 0.0 0.00 0.00 0.00 71 1013.2
20260904014505 71 311 0.0 0.0 0.00 0.00 0.00 69 1013.1
20260904013004 71 311 0.0 0.0 0.00 0.00 0.00 68 1013.1
20260904011503 72 311 0.0 0.0 0.00 0.00 0.00 68 1013.1
20260904010001 72 302 0.0 0.0 0.00 0.00 0.00 67 1013.1
20260904004501 72 302 0.0 0.0 0.00 0.00 0.00 66 1013.0
20260904003103 72 302 0.0 0.0 0.00 0.00 0.00 67 1013.1
20260904001559 72 302 0.0 0.0 0.00 0.00 0.00 66 1013.1
20260904000119 73 302 0.0 0.0 0.00 0.00 0.00 67 1013.0
20260903234556 73 302 0.0 0.0 0.00 0.00 0.00 65 1013.0
20260903233057 73 300 0.0 0.0 0.00 0.00 0.00 66 1012.9
20260903231555 73 300 0.0 0.0 0.00 0.00 0.00 65 1012.9
20260903230054 73 300 0.0 0.0 0.00 0.00 0.00 64 1013.0
20260903224610 74 300 0.0 0.0 0.00 0.00 0.00 64 1013.0
20260903223048 75 275 0.0 0.0 0.00 0.00 0.00 61 1013.0
20260903221546 75 275 0.0 0.0 0.00 0.00 0.00 60 1013.0
20260903220047 75 275 0.0 0.0 0.00 0.00 0.00 60 1012.8
20260903214605 76 232 0.0 0.0 0.00 0.00 0.00 60 1012.8
20260903213057 76 232 0.0 0.0 0.00 0.00 0.00 60 1012.6
20260903211543 76 232 0.0 0.0 0.00 0.00 0.00 59 1012.5
20260903210106 76 232 0.0 0.0 0.00 0.00 0.00 58 1012.4
20260903204549 76 232 0.0 0.0 0.00 0.00 0.00 58 1012.5
20260903203103 77 231 0.0 0.0 0.00 0.00 0.00 58 1012.5
20260903201545 77 218 0.0 0.0 0.00 0.00 0.00 57 1012.4
20260903200050 78 218 0.0 0.0 0.00 0.00 0.00 56 1012.4
20260903194541 78 218 0.0 0.0 0.00 0.00 0.00 56 1012.5
20260903193041 78 215 0.0 0.0 0.00 0.00 0.00 55 1012.4
20260903191541 79 210 0.0 0.0 0.00 0.00 0.00 53 1012.4
20260903190040 80 210 0.0 0.0 0.00 0.00 0.00 53 1012.2
20260903184539 80 210 0.0 0.0 0.00 0.00 0.00 53 1012.1
20260903183045 80 210 0.0 0.0 0.00 0.00 0.00 53 1011.9
20260903181537 81 210 0.0 0.0 0.00 0.00 0.00 51 1011.9
20260903180043 81 210 0.0 0.0 0.00 0.00 0.00 50 1011.8
20260903174538 82 210 0.0 0.0 0.00 0.00 0.00 51 1011.8
20260903173037 82 210 0.0 0.0 0.00 0.00 0.00 50 1011.6
20260903171536 83 210 0.0 0.0 0.00 0.00 0.00 49 1011.6
20260903170038 84 210 0.0 1.0 0.00 0.00 0.00 48 1011.7
20260903164536 84 213 0.0 1.0 0.00 0.00 0.00 48 1011.5
20260903163039 85 207 0.0 2.0 0.00 0.00 0.00 48 1011.5
20260903161535 85 207 0.0 2.0 0.00 0.00 0.00 47 1011.4
20260903160035 87 219 0.0 1.0 0.00 0.00 0.00 46 1011.4
20260903154541 88 213 0.0 4.0 0.00 0.00 0.00 43 1011.3
20260903153033 89 259 0.0 3.0 0.00 0.00 0.00 40 1011.2
20260903151533 90 214 0.0 4.0 0.00 0.00 0.00 39 1011.0
20260903150033 91 222 1.0 8.0 0.00 0.00 0.00 38 1011.0
20260903144534 90 215 2.0 6.0 0.00 0.00 0.00 40 1011.1
20260903143032 91 249 0.0 8.0 0.00 0.00 0.00 41 1011.5
20260903141527 90 206 0.0 3.0 0.00 0.00 0.00 39 1011.7
20260903140026 92 234 0.0 3.0 0.00 0.00 0.00 37 1011.8
20260903134525 91 273 1.0 6.0 0.00 0.00 0.00 37 1012.0
20260903133024 91 209 0.0 5.0 0.00 0.00 0.00 37 1011.9
20260903131523 91 227 0.0 6.0 0.00 0.00 0.00 37 1011.9
20260903130022 91 244 1.0 7.0 0.00 0.00 0.00 39 1012.0
20260903124522 91 234 0.0 1.0 0.00 0.00 0.00 41 1012.0
20260903123024 91 236 0.0 2.0 0.00 0.00 0.00 39 1012.3
20260903121517 90 261 0.0 7.0 0.00 0.00 0.00 42 1012.4
20260903120016 90 97 0.0 2.0 0.00 0.00 0.00 41 1012.4
20260903114514 90 219 0.0 3.0 0.00 0.00 0.00 40 1012.6
20260903113012 91 92 0.0 0.0 0.00 0.00 0.00 41 1012.6
20260903111509 90 68 0.0 4.0 0.00 0.00 0.00 41 1012.9
20260903110012 89 95 0.0 0.0 0.00 0.00 0.00 45 1013.0
20260903104508 89 244 0.0 5.0 0.00 0.00 0.00 42 1013.1
20260903103008 89 178 0.0 3.0 0.00 0.00 0.00 42 1013.2
20260903101505 89 80 0.0 1.0 0.00 0.00 0.00 44 1013.3
20260903100005 89 96 0.0 3.0 0.00 0.00 0.00 41 1013.5
20260903094505 88 181 0.0 1.0 0.00 0.00 0.00 43 1013.9
20260903093001 87 88 0.0 1.0 0.00 0.00 0.00 42 1014.1
20260903091600 86 78 0.0 2.0 0.00 0.00 0.00 43 1014.0
20260903090100 86 73 0.0 1.0 0.00 0.00 0.00 44 1014.0
20260903084557 86 96 0.0 1.0 0.00 0.00 0.00 44 1014.1
20260903083055 85 94 0.0 0.0 0.00 0.00 0.00 45 1014.1
20260903081558 85 74 0.0 0.0 0.00 0.00 0.00 46 1013.9
20260903080050 84 77 0.0 0.0 0.00 0.00 0.00 46 1013.9
20260903074551 84 53 0.0 0.0 0.00 0.00 0.00 46 1014.0
20260903073046 83 76 0.0 0.0 0.00 0.00 0.00 46 1013.8
20260903071544 82 58 0.0 0.0 0.00 0.00 0.00 49 1013.9
20260903070039 80 309 0.0 0.0 0.00 0.00 0.00 55 1013.9
20260903064538 79 314 0.0 0.0 0.00 0.00 0.00 57 1013.8
20260903063102 76 307 0.0 0.0 0.00 0.00 0.00 61 1013.7
20260903061529 76 331 0.0 0.0 0.00 0.00 0.00 63 1013.5
20260903060025 74 28 0.0 0.0 0.00 0.00 0.00 66 1013.3
20260903054525 72 29 0.0 0.0 0.00 0.00 0.00 69 1013.2
20260903053023 70 49 0.0 0.0 0.00 0.00 0.00 72 1013.2
20260903051522 70 82 0.0 0.0 0.00 0.00 0.00 72 1013.1
20260903050021 69 82 0.0 0.0 0.00 0.00 0.00 73 1013.0
20260903044520 68 82 0.0 0.0 0.00 0.00 0.00 74 1013.0
20260903043018 69 82 0.0 0.0 0.00 0.00 0.00 74 1013.0
20260903041521 69 82 0.0 0.0 0.00 0.00 0.00 74 1012.9
20260903040015 69 82 0.0 0.0 0.00 0.00 0.00 74 1012.8
20260903034522 70 82 0.0 0.0 0.00 0.00 0.00 73 1012.8
20260903033008 71 70 0.0 0.0 0.00 0.00 0.00 70 1012.8
20260903031505 73 66 0.0 0.0 0.00 0.00 0.00 65 1012.7
20260903030008 73 329 0.0 0.0 0.00 0.00 0.00 65 1012.6
20260903024505 73 292 0.0 1.0 0.00 0.00 0.00 66 1012.6
20260903023005 73 318 0.0 0.0 0.00 0.00 0.00 66 1012.5